Hoquiam, WA
on Sunday, January 6, 2013

Sunday
Previous Day Next Day
Daily Summary
 ActualAverageRecord
Temperature
Mean Temperature °F 42°F  
Max Temperature 46°F 46°F 58°F (2003)
Min Temperature 37°F 38°F 18°F (1974)
Degree Days
Heating Degree Days 24 23  
Month to date heating degree days 138  
Cooling Degree Days 0 0  
Month to date cooling degree days 0  
Year to date cooling degree days 0  
Moisture
Dew Point 41°F   
Average Humidity 94    
Maximum Humidity 100    
Minimum Humidity 83    
Precipitation
Precipitation 0.49 in 0.36 in 1.39 in (1997)
Month to date precipitation 2.08  
Year to date precipitation 2.08  
Wind
Wind Speed 4 mph   
Max Wind Speed 18 mph   
Max Gust Speed 26 mph   
Visibility 8 miles   
Events Rain   

Key: T is trace of precipitation, MM is missing value
Source: NWS Daily Summary
Time(PST)TemperatureDew PointHumidity Pressure Visibility Wind DirectionWind SpeedGust SpeedPrecipitationEvents Conditions
12:11 AM 41.0°F 39.2°F 93% 30.16 in 4.0 miles East 4.6 mph - 0.02 in Rain Light Rain
12:26 AM 41.0°F 39.2°F 93% 30.16 in 6.0 miles NNW 3.5 mph - 0.04 in Rain Light Rain
12:33 AM 41.0°F 39.2°F 93% 30.16 in 6.0 miles Calm Calm - 0.04 in Rain Light Rain
12:53 AM 41.0°F 41.0°F 100% 30.17 in 6.0 miles Calm Calm - 0.06 in Rain Light Rain
1:05 AM 41.0°F 41.0°F 100% 30.16 in 4.0 miles Calm Calm - 0.02 in Rain Light Rain
1:14 AM 41.0°F 41.0°F 100% 30.16 in 4.0 miles Calm Calm - 0.03 in Rain Light Rain
1:35 AM 41.0°F 41.0°F 100% 30.16 in 7.0 miles Calm Calm - 0.03 in   Overcast
1:49 AM 41.0°F 39.2°F 93% 30.17 in 8.0 miles Calm Calm - 0.03 in   Overcast
1:53 AM 41.0°F 39.2°F 93% 30.17 in 7.0 miles Calm Calm - N/A   Overcast
2:08 AM 41.0°F 39.2°F 93% 30.17 in 9.0 miles ENE 3.5 mph - N/A   Overcast
2:38 AM 42.8°F 39.2°F 87% 30.16 in 8.0 miles Calm Calm - N/A   Overcast
2:53 AM 41.0°F 41.0°F 100% 30.18 in 4.0 miles Calm Calm - 0.01 in Rain Light Rain
3:01 AM 41.0°F 39.2°F 93% 30.17 in 5.0 miles Calm Calm - 0.00 in Rain Light Rain
3:33 AM 42.8°F 39.2°F 87% 30.16 in 10.0 miles Calm Calm - 0.01 in   Overcast
3:53 AM 39.9°F 39.0°F 97% 30.17 in 10.0 miles ENE 3.5 mph - 0.01 in   Mostly Cloudy
4:01 AM 39.2°F 39.2°F 100% 30.15 in 9.0 miles NE 3.5 mph - N/A   Mostly Cloudy
4:21 AM 39.2°F 39.2°F 100% 30.15 in 10.0 miles East 4.6 mph - N/A   Mostly Cloudy
4:25 AM 39.2°F 39.2°F 100% 30.14 in 10.0 miles ENE 4.6 mph - N/A   Mostly Cloudy
4:53 AM 41.0°F 39.9°F 96% 30.16 in 10.0 miles Calm Calm - N/A   Overcast
5:00 AM 41.0°F 39.2°F 93% 30.15 in 10.0 miles Calm Calm - N/A   Overcast
5:53 AM 39.9°F 37.9°F 93% 30.17 in 10.0 miles Calm Calm - N/A   Scattered Clouds
6:53 AM 37.9°F 37.0°F 97% 30.16 in 9.0 miles East 3.5 mph - N/A   Partly Cloudy
7:53 AM 39.0°F 37.9°F 96% 30.16 in 10.0 miles ENE 4.6 mph - N/A   Mostly Cloudy
8:05 AM 39.2°F 37.4°F 93% 30.16 in 9.0 miles ENE 4.6 mph - N/A   Overcast
8:53 AM 39.9°F 39.0°F 97% 30.17 in 9.0 miles ENE 5.8 mph - N/A   Overcast
9:53 AM 42.1°F 39.9°F 92% 30.18 in 10.0 miles ENE 8.1 mph - N/A   Overcast
10:53 AM 43.0°F 41.0°F 93% 30.19 in 10.0 miles ENE 6.9 mph - N/A   Overcast
11:29 AM 44.6°F 41.0°F 87% 30.16 in 10.0 miles ENE 5.8 mph - N/A   Overcast
11:37 AM 44.6°F 42.8°F 93% 30.16 in 10.0 miles ENE 5.8 mph - N/A   Overcast
11:53 AM 44.1°F 42.1°F 93% 30.16 in 10.0 miles ENE 6.9 mph - N/A   Overcast
12:53 PM 44.1°F 42.1°F 93% 30.14 in 10.0 miles ENE 5.8 mph - N/A   Overcast
1:53 PM 45.0°F 42.1°F 90% 30.12 in 10.0 miles ESE 6.9 mph - N/A   Overcast
2:53 PM 46.0°F 42.1°F 86% 30.10 in 10.0 miles ESE 11.5 mph - N/A   Overcast
3:53 PM 46.0°F 41.0°F 83% 30.10 in 10.0 miles SE 10.4 mph - N/A   Overcast
4:26 PM 44.6°F 42.8°F 93% 30.09 in 2.0 miles SE 3.5 mph - 0.01 in Rain Light Rain
4:42 PM 44.6°F 42.8°F 93% 30.08 in 4.0 miles East 4.6 mph - 0.03 in Rain Light Rain
4:53 PM 44.1°F 43.0°F 96% 30.09 in 7.0 miles ENE 5.8 mph - 0.04 in Rain Light Rain
5:53 PM 44.1°F 42.1°F 93% 30.06 in 8.0 miles ENE 4.6 mph - 0.07 in Rain Light Rain
6:29 PM 44.6°F 42.8°F 93% 30.04 in 10.0 miles East 6.9 mph - 0.03 in Rain Light Rain
6:53 PM 44.1°F 42.1°F 93% 30.05 in 7.0 miles East 6.9 mph - 0.04 in Rain Light Rain
7:53 PM 43.0°F 42.1°F 97% 30.04 in 5.0 miles ENE 6.9 mph - 0.07 in Rain Light Rain
8:51 PM 42.8°F 42.8°F 100% 30.00 in 4.0 miles ENE 8.1 mph - 0.08 in Rain Light Rain
8:53 PM 43.0°F 42.1°F 97% 30.01 in 4.0 miles NE 9.2 mph - 0.08 in Rain Light Rain
9:53 PM 43.0°F 42.1°F 97% 29.99 in 4.0 miles ENE 9.2 mph - 0.04 in Rain Light Rain
10:40 PM 44.6°F 42.8°F 93% 29.96 in 9.0 miles East 9.2 mph - 0.03 in Rain Light Rain
10:53 PM 44.1°F 42.1°F 93% 29.96 in 8.0 miles East 9.2 mph - 0.03 in Rain Light Rain
11:53 PM 46.0°F 43.0°F 89% 29.96 in 5.0 miles SSE 18.4 mph 26.5 mph 0.04 in Rain Light Rain
Moon Phase
Jan. 06 Jan. 11 Jan. 18 Jan. 26 Feb. 03
Sunrise:08:00 AM (PST) Moon Rise:02:13 AM (PST)1/6
Sunset:04:43 PM (PST) Moon Set:12:21 PM (PST)1/6

Copyright © 2014 The Weather Underground, Inc.